www.pogodaiklimat.ru

Погода и климат >> Архив погоды >> Россия >> Якутия >> Колымская


ПОГОДА в Колымской

  • Прогноз погоды в Колымской
  • Монитор погоды в Колымской

АРХИВ ПОГОДЫ в Колымской

Время (UTC), дата Ветер
(напр.,м/с)
 
Видим.   Явления Облачность Т
(С)
Тd
(С)
f
(%)
Тe
(С)
Тes
(С)
Комфортность P
(гПа)
Po
(гПа)
Тmin
(С)
Tmax
(С)
R
(мм)
R24
(мм)
S
(см)
18 9.06 ЮВ 3 20 км 3/0
[Ci fib]
+11.9 +3.9 58 +11 +12 1015.1 1014.7
21 9.06 Ю 3 20 км 3/0
[Ci fib]
+15.3 +7.0 58 +15 +19 1015.1 1014.7 +8.4
00 10.06 Ю 2 20 км 5/5 300 м
[Cu med, cong]
+19.6 +5.9 41 +21 +26 комфорт 1015.7 1014.3
03 10.06 ЮЗ 2 20 км 6/6 300 м
[Cu hum]
+21.3 +1.8 27 +21 +25 комфорт 1014.6 1013.2
06 10.06 ЮВ 3 20 км 9/9 300 м
[Cu med, cong]
+21.8 +3.3 30 +22 +22 комфорт 1014.2 1012.8
09 10.06 ЮВ 3 20 км 3/1 300 м
[Cu hum Ac trans]
+21.0 +4.1 33 +22 +23 комфорт 1014.1 1012.7 +22.1
12 10.06 ЮВ 3 20 км ясно +15.4 +6.9 57 +15 +15 1014.7 1013.3
15 10.06 Ю 4 20 км ясно +14.0 +5.3 56 +13 +13 1015.1 1013.7
18 10.06 Ю 4 20 км ясно +13.1 +6.9 66 +12 +12 1015.7 1014.3
21 10.06 Ю 3 20 км ясно +16.7 +5.0 46 +17 +21 1016.0 1014.6 +12.8
00 11.06 ЮЗ 1 20 км 1/1 300 м
[Cu hum]
+20.3 -2.2 22 +21 +32 комфорт 1015.4 1014.0
03 11.06 ЮВ 6 20 км 3/3 300 м
[Cu hum]
+21.4 +3.8 31 +22 +24 комфорт 1013.7 1012.3
06 11.06 ЮВ 4 20 км 1/1 300 м
[Cu hum]
+21.3 +2.7 29 +21 +25 комфорт 1012.3 1010.9
09 11.06 Ю 4 20 км ясно +20.1 +4.4 36 +21 +22 комфорт 1011.9 1010.5 +21.6
12 11.06 ЮВ 3 20 км ясно +17.4 +4.3 42 +17 +18 1011.7 1010.3
15 11.06 ЮВ 3 20 км ясно +11.2 +6.3 72 +9 +10 1011.5 1010.1
18 11.06 Ю 3 20 км ясно +14.5 +4.6 51 +14 +15 1011.2 1009.8
21 11.06 Ю 3 20 км 1/0
[Ci fib]
+18.0 +4.1 40 +18 +23 1010.8 1009.4 +11.1
00 12.06 Ю 4 20 км 1/0
[Ci fib]
+20.3 +2.2 30 +21 +27 комфорт 1009.7 1008.3
03 12.06 Ю 5
{10}
20 км 8/3 600 м
[Cu med, cong Ci fib]
+20.8 +1.1 27 +21 +24 комфорт 1009.0 1007.6
06 12.06 Ю 4 20 км 9/8 600 м
[Cu med, cong Ci fib]
+22.2 -0.3 22 +21 +22 комфорт 1007.7 1006.4
09 12.06 штиль 0 50 км ?/? +20.4 +0.7 27 +20 +20 1007.8 1006.4 +22.7
12 12.06 ЮВ 4 20 км 3/1 1000 м
[Sc diur, vesp Ci fib]
+17.9 +0.7 31 +18 +18 1008.1 1006.7
15 12.06 ЮВ 4 20 км 8/0
[Ci]
+15.5 +1.4 38 +15 +15 1007.5 1006.1
18 12.06 ЮЗ 3 20 км осадки на расстоянии 9/4 600 м
[Cb calv Ci]
+14.2 +5.3 55 +13 +14 1008.1 1006.7
21 12.06 В 5 20 км 9/8 600 м
[Cb calv Ac trans Ci fib]
+17.8 +4.6 42 +17 +18 1007.5 1006.1 +13.5
00 13.06 Ю 5
{11}
20 км 9/8 600 м
[Cu Sc Ci]
+19.9 +1.2 29 +20 +21 1006.5 1005.1
03 13.06 З 4 20 км осадки на расстоянии 9/8 600 м
[Cb calv Ac trans Cc]
+20.2 +7.3 43 +21 +22 комфорт 1005.8 1004.4
06 13.06 З 5 20 км 6/6 600 м
[Cb calv]
+22.1 +5.9 35 +23 +24 комфорт 1005.4 1004.1
09 13.06 СЗ 2 20 км 8/6 600 м
[Cb calv Ci fib]
+22.1 +3.5 30 +22 +23 комфорт 1005.6 1004.3 +23.0
12 13.06 ЮЗ 2 20 км 8/3 600 м
[Cb calv Ci]
+18.5 +6.7 46 +19 +19 1006.1 1004.7
15 13.06 Ю 3 20 км 6/1 600 м
[Cb calv Ci fib]
+14.1 +7.9 66 +13 +13 1006.9 1005.5
18 13.06 Ю 2 20 км 8/1 600 м
[Cu med, cong Ci fib]
+15.0 +9.6 70 +15 +16 1007.3 1059.0
21 13.06 Ю 4 20 км 8/6 600 м
[Cu med, cong Ci fib]
+18.5 +7.8 50 +19 +20 1008.3 1006.9 +13.2
00 14.06 З 4 20 км 9/6 600 м
[Cu med, cong Ci fib]
+22.0 +5.7 35 +23 +25 комфорт 1009.1 1007.7
03 14.06 ЮЗ 2 20 км осадки на расстоянии 9/9 600 м
[Cb calv]
+20.0 +7.6 45 +22 +23 комфорт 1009.7 1008.3
06 14.06 СВ 3 20 км осадки на расстоянии 9/4 600 м
[Cb calv Ci fib]
+24.0 +4.3 28 +24 +26 комфорт 1009.7 1008.4
09 14.06 ЮВ 2 20 км 8/1 600 м
[Cu hum Ac trans Ci fib]
+23.2 +3.8 28 +23 +24 комфорт 1010.5 1009.2 +25.2
12 14.06 ЮВ 2 20 км 4/3 600 м
[Cu hum Ac trans]
+18.4 +6.9 47 +19 +19 1011.6 1010.2
15 14.06 Ю 2 20 км 4/0
[Ac trans Ci fib]
+15.1 +7.2 59 +15 +15 1012.3 1010.9
18 14.06 Ю 3 20 км 4/0
[Ac trans Cc]
+15.5 +8.9 65 +15 +16 1013.0 1011.6
21 14.06 Ю 1 20 км ясно +22.0 +4.5 32 +22 +29 комфорт 1014.1 1012.7 +13.5
00 15.06 Ю 2 20 км ясно +25.6 +1.5 21 +24 +35 комфорт 1014.1 1012.8
03 15.06 З 1 20 км 3/3 600 м
[Cu hum]
+27.4 +1.6 19 +26 +34 жарко 1013.9 1012.6
06 15.06 СЗ 3 20 км 6/6 600 м
[Cu hum]
+28.1 +0.2 16 +26 +28 жарко 1013.2 1011.9
09 15.06 В 3 20 км 3/3 600 м
[Cu med, cong]
+26.4 +2.5 21 +25 +26 комфорт 1013.2 1011.9 +28.3
12 15.06 В 3 20 км ясно +17.9 +8.9 56 +18 +18 1013.8 1012.4
15 15.06 ЮЗ 1 20 км ясно +15.7 +10.2 70 +16 +17 1014.2 1012.8
18 15.06 ЮЗ 1 20 км ясно +15.7 +10.2 70 +16 +18 1014.2 1012.8
21 15.06 Ю 2 20 км 3/0
[Ac cast]
+18.5 +9.0 54 +19 +24 1014.6 1013.2 +12.2
00 16.06 ЮВ 2 20 км ясно +25.2 +6.4 30 +25 +35 комфорт 1014.2 1012.9
03 16.06 Ю 3 20 км 3/3 600 м
[Cu med, cong]
+27.0 +3.3 22 +26 +32 жарко 1013.4 1012.1
06 16.06 Ю 3
{10}
20 км в посл. час ливневой дождь 6/6 600 м
[Cb calv]
+26.0 +3.4 23 +25 +27 комфорт 1012.8 1011.5
09 16.06 С 2 20 км осадки на расстоянии 4/4 600 м
[Cb calv]
+19.8 +9.5 51 +22 +22 комфорт 1012.8 1011.4 +29.0 0.5
12 16.06 С 3 20 км 4/0
[Ac cast Ci fib]
+18.2 +8.8 54 +19 +19 1012.8 1011.4
15 16.06 Ю 2 20 км 4/0
[Ci fib]
+15.2 +10.1 72 +15 +15 1013.1 1011.7

 

Местоположение метеостанции Колымская (Якутия, Россия): широта 68.72 долгота 158.60 высота над уровнем моря 12 м.

В архиве по умолчанию представлена погода в Колымской за последнюю неделю. Архивные данные за месяц целиком и за предыдущие месяцы, начиная с января 2011 года, Вы можете получить, выбрав интересующий диапазон дат из раскрывающегося списка и нажав кнопку "Ввод!".


*Определитесь, кто Вы:
робот инопланетянин человек

Внимание! Время в таблицах - всемирное. Для получения местного времени необходимо прибавить поправку, которая равна 11 ч.

Смотрите также архив погоды в соседних городах и на ближайших метеорологических станциях:

Погода в Черском (Якутия, Россия) (109 км)
Погода в Константиновской (Чукотка, Россия) (120 км)
Погода в Анюйске (Чукотка, Россия) (125 км)
Погода в Андрюшкино (Якутия, Россия) (171 км)
Погода в Бухте Амбарчик (Чукотка, Россия) (177 км)
Погода в Островном (Чукотка, Россия) (235 км)
Погода в Среднеколымске (Якутия, Россия) (248 км)
Погода в Раучуе (Чукотка, Россия) (325 км)
Погода в Билибино (Чукотка, Россия) (328 км)
Погода в Баимке (Чукотка, Россия) (340 км)

Пояснения к столбцам:

Ветер - указаны скорость ветра в м/с - средняя за 10 мин, порывы в срок и между сроками (в фигурных скобках) и направление, откуда дует ветер: С - северный, СВ - северо-восточный, В - восточный, ЮВ - юго-восточный, Ю - южный, ЮЗ - юго-западный, З - западный, СЗ - северо-западный.
Видимость - горизонтальная дальность видимости в метрах или километрах. При видимости от 1 до 10 км при отсутствии осадков обычно наблюдается дымка, при ухудшении видимости до 1 км и менее - туман. В сухую погоду видимость может ухудшаться дымом, пылью или мглою.
Явления - указаны атмосферные явления, наблюдавшиеся в срок или в последний час перед сроком; фигурными скобками обозначены явления, наблюдавшиеся между сроками (за 1-3 часа до срока); квадратными скобками обозначены град или гололедные отложения с указанием их диаметра в мм.
Облачность - указаны через наклонную черту общая и нижняя облачность в баллах и высота нижней границы облаков в метрах; квадратными скобками обозначены формы облаков: Ci - перистые, Cs - перисто-слоистые, Cc - перисто-кучевые, Ac - высококучевые, As - высокослоистые, Sc - слоисто-кучевые, Ns - слоисто-дождевые, Cu - кучевые, Cb - кучево-дождевые. Подробнее классификацию облаков см. в Атласе облаков (PDF).
T - Температура воздуха - температура, измеренная на высоте 2 м над землей.
Td - Температура точки росы - температура, при понижении до которой содержащийся в воздухе водяной пар достигнет насыщения.
f - Относительная влажность воздуха - влажноcть воздуха, измеренная на высоте 2 м над землей.
Te - Эффективная температура - температура, которую ощущает одетый по сезону человек в тени. Характеристика душности погоды. При расчете учитывается влияние влажности воздуха и скорости ветра на теплоощущения человека.
Tes - Эффективная температура на солнце - температура, которую ощущает человек, с поправкой на солнечный нагрев. Характеристика знойности погоды. Зависит от высоты солнца над горизонтом, облачности и скорости ветра. Ночью, в пасмурную погоду, а также при ветре 12 м/с и более поправка равна нулю.
P - Атмосферное давление - приведенное к уровню моря атмосферное давление.
Po - Атмосферное давление - измеренное на уровне метеостанции атмосферное давление.
Tmin - Минимальная температура - минимум температуры воздуха на высоте 2 м над землей.
Tmax - Максимальная температура - максимум температуры воздуха на высоте 2 м над землей.
R - Количество осадков - Количество выпавших осадков за период времени, мм. При наведении курсора мыши на число - период времени, за который выпало указанное количество осадков.
R24 - Количество осадков - Количество выпавших осадков за 24 часа, мм.
S - Снежный покров - Высота снежного покрова, см. При наведении курсора мыши на число - состояние снежного покрова и степень покрытия местности в баллах.